Location: Ammerl�gen
(47.2167°N, 9.6000°E)
Time: 08:10:57
(UTC+00:00)

RS-15 - Pass Details

Date: 16 December 2021
Orbit: 1882 x 2162 km, 64.8° (Epoch: 25 January)

Event Time Altitude Azimuth Distance (km) Brightness Sun altitude
Exits shadow 23:29:36 15° 49° (NE) 4,206 9.9 -66.0°
Drops below altitude 10° 23:31:12 10° 45° (NE) 4,620 10.1 -66.0°
Sets 23:35:00 0° 38° (NE) 5,653 10.8 -65.9°
